Theta_e
317 321 321 321 319 319 319 320 321 322 321 321 324 325 326 329 331 332 332 333 333 333 328 330 332 333 336 333 330 327 328 327 329 333 332 338 340 341 339 340 342 343 344 345
320 321 321 318 317 318 319 320 322 322 320 322 325 328 329 330 331 331 332 332 333 333 333 332 331 332 333 334 333 331 331 332 332 333 334 337 338 338 341 342 342 344 344 343
321 320 317 318 319 320 321 322 323 323 321 321 328 327 328 333 329 329 330 331 331 332 332 333 330 330 330 332 332 332 331 331 332 332 333 335 337 337 339 341 342 343 345 344
319 318 318 319 320 321 323 321 321 320 322 323 326 323 327 329 332 330 331 331 331 331 331 332 329 332 330 330 330 331 332 331 331 332 332 333 333 334 334 335 338 341 344 342
323 320 320 321 323 321 323 320 320 320 322 322 323 324 325 324 327 328 331 330 330 331 331 331 331 329 328 328 330 329 330 331 332 331 331 332 332 333 334 334 335 342 344 343
322 318 320 323 321 320 320 320 321 319 321 324 324 323 324 325 325 325 325 328 329 329 329 329 329 330 330 330 328 328 330 329 330 331 331 331 331 332 333 334 335 341 340 340
322 322 320 320 323 320 321 324 326 325 325 324 320 322 327 327 326 324 324 323 325 325 324 324 326 327 327 328 329 329 328 329 330 330 330 331 331 331 332 332 335 335 337 336
322 324 322 320 323 324 324 326 326 327 327 327 320 326 326 326 322 321 324 327 329 329 327 326 325 328 332 328 326 327 327 328 328 329 330 330 330 330 331 332 333 335 337 335
323 323 322 321 323 324 324 325 324 326 321 324 325 325 324 325 326 327 328 330 331 332 333 333 332 329 327 333 330 327 326 326 327 327 328 329 329 330 330 330 332 335 339 340
322 324 323 325 324 321 324 322 326 325 327 327 326 324 326 327 330 330 330 329 329 330 332 333 331 330 329 329 335 330 326 325 325 326 327 328 329 329 330 330 331 333 338 339
326 325 324 323 325 325 325 325 322 323 325 327 328 326 325 330 330 331 329 327 327 327 328 331 332 332 331 329 330 334 331 325 324 325 326 328 329 331 332 332 333 333 337 337
327 326 326 322 323 321 324 324 326 327 328 324 324 326 328 329 327 327 327 325 325 325 325 325 328 331 332 332 330 331 336 337 334 330 329 330 331 331 333 334 334 335 337 337
326 326 326 325 323 327 330 327 327 325 325 330 330 329 328 326 326 325 325 324 323 323 323 323 323 324 328 332 333 332 334 339 340 339 336 334 334 334 333 333 335 336 338 339
326 328 327 324 325 324 328 328 326 326 328 327 327 327 327 328 327 325 323 321 322 322 322 322 322 322 322 323 327 332 332 334 340 341 340 338 337 336 335 336 336 337 339 341
322 325 325 323 322 323 325 324 322 324 325 328 326 326 327 327 324 323 323 320 319 319 320 320 320 321 321 320 321 324 331 331 336 340 340 340 339 338 337 337 337 338 341 338
320 319 323 319 317 318 317 317 318 318 319 322 324 324 324 322 320 320 322 319 318 318 317 317 318 318 315 315 316 320 323 329 331 338 339 340 340 339 338 338 338 339 340 336
318 319 320 315 318 319 316 318 320 322 325 327 329 328 321 321 320 319 320 319 318 317 317 316 315 315 315 315 312 315 318 323 327 332 339 340 339 339 339 338 338 338 338 337
319 319 318 317 320 315 321 323 324 325 321 320 320 320 320 319 318 317 318 319 317 316 316 315 315 314 311 311 312 315 316 320 325 327 337 339 339 339 338 337 337 338 338 338
316 318 319 320 320 318 316 320 318 316 320 312 313 314 318 315 313 314 318 316 314 313 314 314 314 316 314 312 312 316 319 322 323 326 328 337 339 339 339 338 337 337 337 337
315 317 319 320 317 311 321 315 311 313 320 311 309 311 313 311 313 313 311 310 311 312 313 315 315 316 314 313 313 314 319 322 322 323 324 327 333 339 340 339 339 338 337 337
317 317 317 316 316 316 313 311 310 319 316 309 309 311 311 310 309 310 310 311 312 312 313 315 315 316 314 313 314 314 316 319 323 322 323 325 326 330 341 340 340 338 337 335
316 315 315 318 319 315 310 310 309 309 308 309 309 310 311 310 310 310 311 312 312 312 313 314 314 314 313 313 314 315 314 318 322 323 323 325 325 326 329 339 339 338 335 334
314 313 314 315 314 312 308 308 308 308 309 310 310 310 310 310 310 311 311 312 312 312 312 314 314 315 314 313 314 314 315 316 320 322 323 322 322 324 328 334 338 337 335 335
310 308 311 310 309 309 308 308 308 309 309 309 310 310 310 310 311 311 311 312 312 312 312 313 314 315 314 313 311 313 314 315 318 321 321 323 322 320 324 333 336 336 334 333
309 308 309 309 308 308 308 309 309 309 310 311 311 311 311 311 311 311 311 311 312 312 312 312 313 314 314 314 312 310 313 315 315 317 320 321 324 323 327 331 332 332 333 333
307 309 309 309 308 308 308 309 310 310 311 311 311 311 312 312 312 312 312 311 310 311 312 312 313 314 314 314 313 310 311 315 316 317 319 320 322 323 323 326 327 324 323 324
Wind_Speed
2 4 7 5 4 2 2 3 6 8 7 3 7 13 13 8 14 20 25 26 29 35 35 35 35 36 38 37 37 37 37 37 37 38 38 37 35 32 31 31 28 26 23 20
3 8 7 3 5 5 4 4 8 9 4 7 5 9 10 8 12 20 22 24 31 32 28 30 39 39 41 41 42 41 42 41 41 42 40 40 37 37 35 35 34 31 29 24
6 2 7 7 6 6 6 8 4 5 3 4 4 6 4 4 9 11 19 23 26 30 31 28 35 44 42 45 46 47 46 46 46 45 45 45 43 42 41 40 37 36 33 29
6 3 6 6 6 8 4 8 7 4 4 3 2 7 4 4 9 9 16 22 25 27 30 31 41 34 45 50 47 48 50 51 50 50 51 51 49 48 46 43 40 39 36 33
2 4 5 5 4 9 3 4 3 1 3 3 4 5 2 3 8 11 14 19 22 25 27 31 35 45 50 48 52 53 53 54 54 55 56 56 54 51 48 48 43 42 38 36
7 2 5 6 2 8 2 3 2 2 2 5 2 5 5 3 6 5 7 7 12 16 19 27 34 38 47 42 53 55 57 59 58 60 60 61 60 57 55 53 46 45 28 36
3 5 2 5 6 3 2 3 5 6 5 6 4 4 9 8 12 5 9 13 14 15 13 15 19 24 33 35 45 55 59 61 62 63 62 63 64 61 61 57 50 37 40 36
3 2 4 4 4 2 4 2 4 6 8 10 3 5 6 7 8 6 6 9 11 14 15 17 17 17 17 26 38 46 52 59 60 62 63 64 63 64 63 61 55 48 50 40
4 5 2 5 3 4 3 6 2 2 1 4 4 5 10 5 11 12 15 16 19 19 21 21 20 20 21 19 21 30 45 50 55 60 57 63 65 66 67 65 60 56 46 50
0 4 2 4 1 3 4 5 3 2 5 11 5 4 8 2 9 11 15 19 21 23 24 24 26 25 24 25 22 18 22 32 44 51 54 54 62 65 66 65 63 59 52 46
2 2 2 3 1 3 1 2 1 2 3 9 12 7 4 9 8 9 13 18 21 22 23 24 25 27 26 25 24 23 18 21 31 39 44 46 51 57 60 64 62 59 53 46
3 0 4 8 6 4 2 1 3 3 4 1 3 5 8 11 10 10 12 15 17 19 22 23 25 27 30 30 29 25 21 17 18 25 32 39 44 51 55 59 59 57 53 47
3 0 5 4 3 4 4 3 4 1 2 7 7 4 7 9 11 11 13 15 17 19 22 25 27 28 29 31 33 31 25 18 17 19 25 31 39 46 50 52 52 52 52 47
1 2 6 8 6 3 8 12 8 5 6 12 13 17 12 9 10 11 13 15 16 19 21 24 26 27 29 30 31 32 33 24 18 19 25 30 34 39 43 44 45 50 51 49
2 4 4 10 15 15 13 15 16 16 18 15 19 20 10 10 11 11 10 15 17 19 21 23 26 28 30 32 33 31 29 31 23 19 23 29 33 36 37 41 42 44 49 48
3 3 1 10 12 13 17 19 20 19 18 18 15 16 4 8 11 11 10 13 16 19 22 24 25 28 32 34 36 36 32 28 29 24 23 24 28 35 39 39 39 43 48 47
3 2 1 4 4 6 10 10 9 11 4 4 6 4 8 9 13 16 16 12 17 20 22 25 28 30 32 33 37 38 38 32 27 26 23 22 23 27 32 34 35 40 46 48
4 4 3 3 4 5 4 5 6 7 4 6 5 7 8 12 18 22 16 12 22 26 28 29 28 29 35 38 36 37 37 35 28 25 22 23 20 23 26 32 34 38 44 48
11 5 3 3 4 5 9 3 4 5 2 8 11 14 13 17 22 18 9 18 26 30 31 32 32 30 33 33 36 38 37 32 31 26 24 19 22 25 26 29 32 34 37 43
9 1 4 3 5 5 4 6 14 4 8 9 20 19 16 22 14 13 24 32 32 29 28 29 30 30 31 34 34 36 35 33 32 33 30 26 22 27 27 28 25 29 34 39
3 2 5 5 5 4 4 15 14 7 6 28 21 17 19 18 26 33 32 32 29 29 28 28 28 28 30 32 34 33 34 33 33 32 31 29 25 23 30 32 32 32 35 34
1 2 3 1 4 6 10 4 6 11 22 19 23 28 30 32 33 32 33 31 31 32 31 30 31 32 32 31 33 33 31 30 30 30 28 26 24 24 24 27 36 38 40 41
3 3 3 4 3 2 3 9 14 10 17 24 28 32 33 36 37 37 38 38 39 36 34 32 31 30 31 28 28 31 28 28 29 28 27 27 27 24 23 26 33 39 41 43
1 0 4 4 0 11 19 18 10 19 24 30 32 33 32 36 37 39 39 39 39 37 37 33 31 29 29 30 27 30 29 24 25 27 29 26 26 27 20 22 32 38 38 44
3 2 4 7 14 17 7 20 23 30 32 30 28 29 32 33 37 39 41 40 39 38 36 35 33 31 31 30 31 30 30 27 23 24 27 26 23 23 18 21 28 36 37 46
4 2 3 4 14 17 26 30 33 32 32 32 35 36 36 34 37 41 41 40 39 38 33 33 32 32 32 29 30 32 29 29 23 20 22 23 22 22 15 17 19 19 28 33
Wind_Direction
129 206 220 234 198 175 191 265 283 269 261 250 236 264 271 261 232 241 235 219 218 222 224 222 223 221 221 220 215 214 217 215 212 212 211 212 213 217 219 222 226 229 228 235
164 244 228 165 181 207 216 262 261 280 236 211 239 257 287 254 251 245 248 237 231 234 227 227 225 226 224 224 223 220 221 221 220 218 217 216 217 223 224 227 228 231 233 231
220 216 132 178 191 213 226 230 247 268 278 240 266 250 267 263 267 266 250 247 242 235 232 227 232 228 230 229 225 226 225 225 223 225 223 221 222 226 228 232 231 230 232 234
239 204 218 191 222 202 268 209 254 249 239 225 295 283 264 274 275 247 244 241 245 239 237 230 236 234 229 232 231 231 232 233 232 229 228 228 226 226 230 234 234 232 230 232
225 184 166 195 231 187 256 174 269 195 169 231 183 260 254 288 282 274 261 248 250 251 247 242 240 241 248 243 236 231 234 235 236 236 234 236 233 233 235 234 235 235 233 237
264 236 217 233 215 199 114 208 108 113 165 245 234 250 261 253 277 294 291 311 299 303 289 276 268 257 252 244 251 249 239 237 235 236 236 238 239 236 235 237 235 229 238 253
277 240 254 210 251 166 190 261 262 252 239 277 122 216 274 255 263 281 349 3 5 3 356 332 312 281 268 255 248 255 253 248 241 237 239 239 241 241 242 242 232 232 237 235
290 279 171 173 202 244 178 218 283 285 277 289 138 239 278 271 26 4 66 38 27 13 359 358 355 343 317 281 271 262 261 262 253 246 240 241 243 243 243 244 241 234 232 232
195 259 299 225 239 230 153 222 351 207 134 253 270 256 274 273 72 46 32 12 15 7 7 3 358 351 347 332 318 274 263 262 259 258 250 244 242 243 245 244 241 239 236 236
201 280 273 306 304 86 244 138 231 213 253 267 232 263 272 321 42 31 25 12 4 5 4 3 2 357 352 343 334 318 289 272 265 261 259 253 247 243 243 244 241 238 234 237
6 252 274 268 230 332 222 223 57 296 265 277 280 270 24 88 53 37 24 10 3 359 357 357 359 0 357 349 342 335 315 291 271 263 261 257 250 246 243 244 242 238 235 235
32 205 258 276 303 322 333 55 72 276 261 247 296 267 84 76 55 35 22 7 0 358 358 357 355 357 358 359 354 345 327 305 275 275 268 261 252 247 245 245 244 239 234 233
358 342 304 271 180 94 74 86 58 34 224 243 267 270 135 52 28 21 10 4 359 356 358 357 358 359 355 353 355 355 346 314 285 259 267 262 255 248 248 249 247 239 232 231
217 217 248 270 291 285 291 292 306 298 268 277 259 284 266 346 7 11 7 3 359 1 2 358 357 354 354 352 350 350 352 344 301 269 269 270 262 256 252 253 249 241 232 229
24 261 227 275 285 292 280 275 277 270 267 260 277 280 314 344 349 350 349 358 358 358 357 354 352 351 351 350 348 347 344 348 337 287 267 269 275 265 258 253 249 240 235 233
20 269 277 282 276 275 278 280 286 283 280 271 284 279 15 334 339 343 329 348 350 349 347 344 342 343 345 344 343 342 341 337 340 327 291 270 269 271 263 256 248 240 233 232
260 240 216 264 343 302 263 265 280 289 38 321 307 0 339 335 340 336 322 326 338 337 334 333 335 334 333 333 333 332 332 335 329 331 317 291 264 259 259 257 253 245 237 233
209 194 227 270 285 248 89 53 44 94 70 37 10 336 329 326 320 317 312 306 331 330 326 325 323 325 327 325 325 322 323 325 328 318 312 302 289 258 257 260 259 249 241 235
212 199 210 254 233 320 268 57 10 346 172 40 3 342 323 324 318 305 302 313 317 312 311 312 313 311 315 318 322 318 319 321 321 320 309 300 279 268 269 264 263 257 245 238
154 228 240 185 263 273 74 12 335 278 250 17 347 327 323 326 311 309 312 308 305 302 301 305 309 306 307 315 316 316 315 320 322 320 316 306 286 262 259 262 259 257 253 242
161 181 244 247 261 262 42 347 331 254 337 329 332 316 313 308 295 295 301 303 303 302 300 303 306 303 308 316 315 312 311 316 323 323 322 313 303 276 260 264 256 254 245 238
264 268 236 204 258 265 11 39 350 317 307 310 313 311 307 303 301 297 297 295 299 302 301 300 302 306 304 308 313 313 312 311 317 320 320 317 312 290 270 256 249 242 229 221
236 305 311 244 315 311 345 322 304 292 304 312 309 306 305 301 300 301 298 297 297 297 297 295 297 301 304 309 314 313 312 309 309 320 318 317 312 301 275 251 245 229 225 224
168 245 262 312 119 304 315 312 307 306 306 305 303 302 302 298 300 299 299 298 298 297 296 294 291 292 295 300 313 314 317 307 306 308 321 316 323 314 282 257 241 233 226 218
275 232 266 267 284 307 279 311 315 311 309 307 306 305 303 301 297 297 295 294 295 296 296 294 289 286 291 293 297 310 313 313 303 300 308 317 308 330 289 243 231 224 234 235
205 225 260 293 303 300 299 311 315 313 311 311 307 307 313 310 306 303 298 298 297 298 298 295 292 288 291 293 295 301 303 313 306 303 299 305 311 306 295 276 247 226 216 215